Lubbock, TX

7:42 PM CST on November 12, 2019 (GMT -0600)
Lubbock International

Weather History for KLBB - August, 2019

Change the Weather History Date:

Sunday, August 25, 2019

  Actual Average Record
Temperature  
Mean Temperature 88 °F 78 °F  
Max Temperature 104 °F 90 °F 105 °F (1936)
Min Temperature 72 °F 66 °F 54 °F (1962)
Degree Days  
Heating Degree Days 0 0  
Month to date heating degree days 0 0  
Since 1 June heating degree days 0 2  
Since 1 July heating degree days 0 0  
Cooling Degree Days 23 13  
Month to date cooling degree days 514 359  
Year to date cooling degree days 1621 1452  
Since 1 June cooling degree days 1411 1206  
Growing Degree Days 38 (Base 50)    
Moisture  
Dew Point 60 °F    
Average Humidity 48    
Maximum Humidity 79    
Minimum Humidity 18    
Precipitation  
Precipitation 0.00 in 0.07 in 2.22 in (1942)
Month to date precipitation 1.94 1.52  
Year to date precipitation 15.39 12.68  
Snow  
Snow 0.00 in 0.00 in - ()
Month to date snowfall 0.0 0.0  
Since 1 June snowfall 0.0 0.0  
Since 1 July snowfall 0.0 0.0  
Snow Depth 0.00 in    
Sea Level Pressure  
Sea Level Pressure 29.70 in    
Wind  
Wind Speed 10 mph ()    
Max Wind Speed 21 mph    
Max Gust Speed 26 mph    
Visibility 10.0 miles    
Events      
T = Trace of Precipitation, MM = Missing Value Source: Averaged Metar Reports

Daily Weather History Graph

Daily Weather History Graph

Search for Another Location

Airport or City:

Astronomy

Aug. 25, 2019 Rise Set
Actual Time 7:16 AM CDT 8:21 PM CDT
Civil Twilight 6:50 AM CDT 8:47 PM CDT
Nautical Twilight 6:19 AM CDT 9:18 PM CDT
Astronomical Twilight 5:48 AM CDT 9:49 PM CDT
Moon 2:01 AM CDT (8/25) 4:35 PM CDT (8/25)
Length of Visible Light 13h 57m
Length of Day
13h 05m
Waning Crescent, 29% of the Moon is Illuminated
Aug 25
Waning Crescent
Aug 30
New
Sep 5
First Quarter
Sep 13
Full
Sep 21
Last Quarter

Hourly Weather History & Observations

Time (CDT) Temp. Heat Index Dew Point Humidity Pressure Visibility Wind Dir Wind Speed Gust Speed Precip Events Conditions
12:53 AM 78.1 °F - 63.0 °F 60% 29.81 in 10.0 mi South 11.5 mph - N/A   Partly Cloudy
1:53 AM 77.0 °F - 64.9 °F 66% 29.80 in 10.0 mi South 12.7 mph - N/A   Partly Cloudy
2:53 AM 75.0 °F - 64.9 °F 71% 29.78 in 10.0 mi South 13.8 mph - N/A   Partly Cloudy
3:53 AM 75.9 °F - 63.0 °F 64% 29.76 in 10.0 mi SSW 18.4 mph - N/A   Partly Cloudy
4:53 AM 75.0 °F - 63.0 °F 66% 29.75 in 10.0 mi South 13.8 mph - N/A   Partly Cloudy
5:53 AM 73.9 °F - 63.0 °F 68% 29.74 in 10.0 mi South 10.4 mph - N/A   Partly Cloudy
6:53 AM 72.0 °F - 63.0 °F 73% 29.73 in 10.0 mi South 13.8 mph - N/A   Partly Cloudy
7:53 AM 72.0 °F - 64.0 °F 76% 29.74 in 10.0 mi South 11.5 mph - N/A   Partly Cloudy
8:53 AM 75.9 °F - 64.0 °F 67% 29.75 in 10.0 mi South 12.7 mph - N/A   Partly Cloudy
9:53 AM 81.0 °F 82.5 °F 64.0 °F 56% 29.75 in 10.0 mi South 10.4 mph - N/A   Clear
10:53 AM 84.9 °F 85.4 °F 62.1 °F 46% 29.76 in 10.0 mi Variable 6.9 mph - N/A   Clear
11:53 AM 89.1 °F 89.3 °F 62.1 °F 40% 29.75 in 10.0 mi SSW 6.9 mph - N/A   Clear
12:53 PM 93.0 °F 92.7 °F 60.1 °F 33% 29.72 in 10.0 mi SSW 6.9 mph - N/A   Partly Cloudy
1:53 PM 96.1 °F 95.2 °F 57.9 °F 28% 29.69 in 10.0 mi SW 11.5 mph - N/A   Partly Cloudy
2:53 PM 99.0 °F 96.5 °F 53.1 °F 21% 29.66 in 10.0 mi SW 6.9 mph - N/A   Partly Cloudy
3:53 PM 102.0 °F - 51.1 °F 18% 29.63 in 10.0 mi WNW 9.2 mph - N/A   Partly Cloudy
4:53 PM 102.0 °F - 51.1 °F 18% 29.62 in 10.0 mi Variable 4.6 mph - N/A   Partly Cloudy
5:53 PM 102.0 °F - 52.0 °F 19% 29.61 in 10.0 mi North 4.6 mph - N/A   Scattered Clouds
6:53 PM 98.1 °F 97.7 °F 59.0 °F 27% 29.61 in 10.0 mi NNE 6.9 mph - N/A   Scattered Clouds
7:53 PM 91.9 °F 91.2 °F 59.0 °F 33% 29.63 in 10.0 mi North 9.2 mph - N/A   Scattered Clouds
8:53 PM 86.0 °F 87.3 °F 64.0 °F 48% 29.64 in 10.0 mi NE 8.1 mph - N/A   Partly Cloudy
9:53 PM 84.0 °F 84.0 °F 60.1 °F 44% 29.65 in 10.0 mi ENE 10.4 mph - N/A   Clear
10:53 PM 81.0 °F 81.6 °F 60.1 °F 49% 29.65 in 10.0 mi East 9.2 mph - N/A   Clear
11:53 PM 77.0 °F - 60.1 °F 56% 29.65 in 10.0 mi ESE 6.9 mph - N/A   Clear